Time,TemperatureF,DewpointF,PressureIn,WindDirection,WindDirectionDegrees,WindSpeedMPH,WindSpeedGustMPH,Humidity,HourlyPrecipIn,Conditions,Clouds,dailyrainin,SoftwareType,DateUTC
2013-04-30 00:01:00,62.6,53.5,28.64,SSE,160,5.0,12.0,72,0.00,,CLR,0.00,VWS V14.01,2013-04-30 05:01:00,
2013-04-30 00:06:00,62.6,62.6,28.64,SSE,151,8.0,12.0,100,0.00,,CLR,0.00,VWS V14.01,2013-04-30 05:06:00,
2013-04-30 00:11:00,62.5,62.5,28.64,SSW,193,7.0,14.0,100,0.00,,CLR,0.00,VWS V14.01,2013-04-30 05:11:00,
2013-04-30 00:16:00,62.5,55.9,28.64,SSW,203,10.0,17.0,79,0.00,,CLR,0.00,VWS V14.01,2013-04-30 05:16:00,
2013-04-30 00:21:00,62.4,55.8,28.64,SSE,168,9.0,12.0,79,0.00,,CLR,0.00,VWS V14.01,2013-04-30 05:21:00,
2013-04-30 00:26:00,62.4,62.4,28.64,SSE,168,10.0,13.0,100,0.00,,CLR,0.00,VWS V14.01,2013-04-30 05:26:00,
2013-04-30 00:31:00,62.3,62.3,28.64,South,178,4.0,9.0,100,0.00,,CLR,0.00,VWS V14.01,2013-04-30 05:31:00,
2013-04-30 00:36:00,62.3,59.0,28.64,SSE,151,6.0,14.0,89,0.00,,CLR,0.00,VWS V14.01,2013-04-30 05:36:00,
2013-04-30 00:41:00,62.3,58.7,28.63,SE,133,5.0,11.0,88,0.00,,CLR,0.00,VWS V14.01,2013-04-30 05:41:00,
2013-04-30 00:46:00,62.3,62.3,28.64,South,173,13.0,21.0,100,0.00,,CLR,0.00,VWS V14.01,2013-04-30 05:46:00,
2013-04-30 00:51:00,62.3,62.3,28.64,SSE,163,18.0,18.0,100,0.00,,CLR,0.00,VWS V14.01,2013-04-30 05:51:00,
2013-04-30 00:56:00,62.3,58.7,28.63,SSE,153,12.0,18.0,88,0.00,,CLR,0.00,VWS V14.01,2013-04-30 05:56:00,
2013-04-30 01:01:00,62.3,61.4,28.63,SSE,166,7.0,17.0,97,0.00,,CLR,0.00,VWS V14.01,2013-04-30 06:01:00,
2013-04-30 01:06:00,62.2,58.6,28.62,SE,136,8.0,19.0,88,0.00,,CLR,0.00,VWS V14.01,2013-04-30 06:06:00,
2013-04-30 01:11:00,62.2,62.2,28.62,SSW,206,3.0,12.0,100,0.00,,CLR,0.00,VWS V14.01,2013-04-30 06:11:00,
2013-04-30 01:16:00,62.2,61.3,28.62,SW,219,3.0,14.0,97,0.00,,CLR,0.00,VWS V14.01,2013-04-30 06:16:00,
2013-04-30 01:21:00,62.1,61.2,28.62,SSE,162,7.0,15.0,97,0.00,,CLR,0.00,VWS V14.01,2013-04-30 06:21:00,
2013-04-30 01:26:00,62.1,62.1,28.61,SSE,158,8.0,15.0,100,0.00,,CLR,0.00,VWS V14.01,2013-04-30 06:26:00,
2013-04-30 01:31:00,62.1,62.1,28.60,South,187,10.0,12.0,100,0.00,,CLR,0.00,VWS V14.01,2013-04-30 06:31:00,
2013-04-30 01:36:00,62.1,62.1,28.60,SE,137,4.0,16.0,100,0.00,,CLR,0.00,VWS V14.01,2013-04-30 06:36:00,
2013-04-30 01:41:00,62.1,61.2,28.60,South,185,5.0,16.0,97,0.00,,CLR,0.00,VWS V14.01,2013-04-30 06:41:00,
2013-04-30 01:46:00,62.0,62.0,28.60,SSW,199,4.0,16.0,100,0.00,,CLR,0.00,VWS V14.01,2013-04-30 06:46:00,
2013-04-30 01:51:00,62.1,62.1,28.61,SSW,194,7.0,13.0,100,0.00,,CLR,0.00,VWS V14.01,2013-04-30 06:51:00,
2013-04-30 01:56:00,62.0,62.0,28.61,SSE,163,12.0,20.0,100,0.00,,CLR,0.00,VWS V14.01,2013-04-30 06:56:00,
2013-04-30 02:01:00,62.0,62.0,28.61,SE,138,14.0,14.0,100,0.00,,CLR,0.00,VWS V14.01,2013-04-30 07:01:00,
2013-04-30 02:06:00,61.9,61.0,28.61,SSE,158,12.0,17.0,97,0.00,,CLR,0.00,VWS V14.01,2013-04-30 07:06:00,
2013-04-30 02:11:00,62.0,62.0,28.60,SSE,153,10.0,18.0,100,0.00,,CLR,0.00,VWS V14.01,2013-04-30 07:11:00,
2013-04-30 02:16:00,61.9,61.9,28.60,SE,138,2.0,18.0,100,0.00,,CLR,0.00,VWS V14.01,2013-04-30 07:16:00,
2013-04-30 02:21:00,61.8,61.8,28.60,SE,137,3.0,12.0,100,0.00,,CLR,0.00,VWS V14.01,2013-04-30 07:21:00,
2013-04-30 02:26:00,61.8,61.8,28.60,SSW,197,12.0,23.0,100,0.00,,CLR,0.00,VWS V14.01,2013-04-30 07:26:00,
2013-04-30 02:31:00,61.8,61.8,28.61,SW,217,4.0,17.0,100,0.00,,CLR,0.00,VWS V14.01,2013-04-30 07:31:00,
2013-04-30 02:36:00,61.8,61.8,28.61,SSW,196,5.0,17.0,100,0.00,,CLR,0.00,VWS V14.01,2013-04-30 07:36:00,
2013-04-30 02:41:00,61.8,61.8,28.60,SE,146,15.0,15.0,100,0.00,,CLR,0.00,VWS V14.01,2013-04-30 07:41:00,
2013-04-30 02:46:00,61.8,60.9,28.60,South,182,3.0,17.0,97,0.00,,CLR,0.00,VWS V14.01,2013-04-30 07:46:00,
2013-04-30 02:51:00,61.8,61.8,28.60,SSE,150,13.0,18.0,100,0.00,,CLR,0.00,VWS V14.01,2013-04-30 07:51:00,
2013-04-30 02:56:00,61.8,61.8,28.60,SSE,168,6.0,18.0,100,0.00,,CLR,0.00,VWS V14.01,2013-04-30 07:56:00,
2013-04-30 03:01:00,61.8,61.8,28.60,South,177,5.0,20.0,100,0.00,,CLR,0.00,VWS V14.01,2013-04-30 08:01:00,
2013-04-30 03:06:00,61.8,61.8,28.59,SSE,159,15.0,26.0,100,0.00,,CLR,0.00,VWS V14.01,2013-04-30 08:06:00,
2013-04-30 03:11:00,61.8,61.8,28.60,SSE,161,13.0,20.0,100,0.00,,CLR,0.00,VWS V14.01,2013-04-30 08:11:00,
2013-04-30 03:16:00,61.9,61.9,28.60,SE,139,21.0,21.0,100,0.00,,CLR,0.00,VWS V14.01,2013-04-30 08:16:00,
2013-04-30 03:21:00,61.9,61.9,28.60,SSE,165,13.0,18.0,100,0.00,,CLR,0.00,VWS V14.01,2013-04-30 08:21:00,
2013-04-30 03:26:00,62.0,61.1,28.61,South,172,9.0,25.0,97,0.00,,CLR,0.00,VWS V14.01,2013-04-30 08:26:00,
2013-04-30 03:31:00,62.1,62.1,28.62,SSE,149,19.0,20.0,100,0.00,,CLR,0.00,VWS V14.01,2013-04-30 08:31:00,
2013-04-30 03:36:00,62.1,62.1,28.63,SSE,158,14.0,21.0,100,0.00,,CLR,0.00,VWS V14.01,2013-04-30 08:36:00,
2013-04-30 03:41:00,62.1,61.2,28.63,South,184,5.0,23.0,97,0.00,,CLR,0.00,VWS V14.01,2013-04-30 08:41:00,
2013-04-30 03:46:00,62.1,61.2,28.64,SE,133,8.0,23.0,97,0.00,,CLR,0.00,VWS V14.01,2013-04-30 08:46:00,
2013-04-30 03:51:00,62.1,62.1,28.65,SSW,204,5.0,11.0,100,0.00,,CLR,0.00,VWS V14.01,2013-04-30 08:51:00,
2013-04-30 03:56:00,62.1,62.1,28.65,South,187,4.0,17.0,100,0.00,,CLR,0.00,VWS V14.01,2013-04-30 08:56:00,
2013-04-30 04:01:00,62.1,62.1,28.65,South,191,4.0,8.0,100,0.00,,CLR,0.00,VWS V14.01,2013-04-30 09:01:00,
2013-04-30 04:06:00,62.0,62.0,28.66,SSW,200,5.0,8.0,100,0.00,,CLR,0.00,VWS V14.01,2013-04-30 09:06:00,
2013-04-30 04:11:00,61.8,61.8,28.66,South,185,1.0,3.0,100,0.00,,CLR,0.00,VWS V14.01,2013-04-30 09:11:00,
2013-04-30 04:16:00,61.8,61.8,28.66,South,182,3.0,7.0,100,0.00,,CLR,0.00,VWS V14.01,2013-04-30 09:16:00,
2013-04-30 04:21:00,61.7,61.7,28.66,SSE,157,13.0,13.0,100,0.00,,CLR,0.00,VWS V14.01,2013-04-30 09:21:00,
2013-04-30 04:26:00,61.7,61.7,28.66,SSE,156,3.0,13.0,100,0.00,,CLR,0.00,VWS V14.01,2013-04-30 09:26:00,
2013-04-30 04:31:00,61.6,61.6,28.66,SSW,199,3.0,4.0,100,0.00,,CLR,0.00,VWS V14.01,2013-04-30 09:31:00,
2013-04-30 04:36:00,61.5,61.5,28.67,SSW,196,3.0,9.0,100,0.00,,CLR,0.00,VWS V14.01,2013-04-30 09:36:00,
2013-04-30 04:41:00,61.4,61.4,28.68,SW,224,3.0,4.0,100,0.00,,BKN075,0.00,VWS V14.01,2013-04-30 09:41:00,
2013-04-30 04:46:00,61.3,39.8,28.69,SSW,207,3.0,7.0,45,0.00,,BKN075,0.00,VWS V14.01,2013-04-30 09:46:00,
2013-04-30 04:51:00,61.2,61.2,28.71,SW,225,3.0,6.0,100,0.00,,BKN075,0.00,VWS V14.01,2013-04-30 09:51:00,
2013-04-30 04:56:00,61.2,61.2,28.71,WSW,244,7.0,10.0,100,0.01,,BKN075,0.01,VWS V14.01,2013-04-30 09:56:00,
2013-04-30 05:01:00,61.1,61.1,28.71,SW,236,3.0,8.0,100,0.01,,BKN075,0.01,VWS V14.01,2013-04-30 10:01:00,
2013-04-30 05:06:00,60.8,60.8,28.69,SE,137,0.0,8.0,100,0.03,,BKN075,0.03,VWS V14.01,2013-04-30 10:06:00,
2013-04-30 05:11:00,60.7,60.7,28.69,South,190,3.0,4.0,100,0.04,,BKN075,0.04,VWS V14.01,2013-04-30 10:11:00,
2013-04-30 05:16:00,60.4,60.4,28.68,South,173,0.0,4.0,100,0.05,,BKN075,0.05,VWS V14.01,2013-04-30 10:16:00,
2013-04-30 05:21:00,60.2,60.2,28.69,SSW,205,2.0,6.0,100,0.06,,BKN075,0.06,VWS V14.01,2013-04-30 10:21:00,
2013-04-30 05:26:00,60.0,60.0,28.68,SSE,168,0.0,8.0,100,0.06,,BKN075,0.06,VWS V14.01,2013-04-30 10:26:00,
2013-04-30 05:31:00,59.8,59.8,28.68,SE,146,4.0,7.0,100,0.07,,BKN075,0.07,VWS V14.01,2013-04-30 10:31:00,
2013-04-30 05:36:00,59.8,59.8,28.67,SSE,157,3.0,7.0,100,0.08,,BKN075,0.08,VWS V14.01,2013-04-30 10:36:00,
2013-04-30 05:41:00,59.7,59.7,28.67,SE,140,4.0,5.0,100,0.09,,CLR,0.09,VWS V14.01,2013-04-30 10:41:00,
2013-04-30 05:46:00,59.6,59.6,28.67,South,170,4.0,6.0,100,0.09,,CLR,0.09,VWS V14.01,2013-04-30 10:46:00,
2013-04-30 05:51:00,59.5,59.5,28.66,South,173,4.0,13.0,100,0.10,,CLR,0.10,VWS V14.01,2013-04-30 10:51:00,
2013-04-30 05:56:00,59.5,59.5,28.64,ESE,121,10.0,13.0,100,0.11,,CLR,0.11,VWS V14.01,2013-04-30 10:56:00,
2013-04-30 06:01:00,59.5,59.5,28.66,South,180,5.0,6.0,100,0.10,,CLR,0.11,VWS V14.01,2013-04-30 11:01:00,
2013-04-30 06:06:00,59.5,59.5,28.66,ESE,116,4.0,16.0,100,0.10,,CLR,0.11,VWS V14.01,2013-04-30 11:06:00,
2013-04-30 06:11:00,59.6,59.6,28.64,East,90,0.0,7.0,100,0.07,,CLR,0.11,VWS V14.01,2013-04-30 11:11:00,
2013-04-30 06:16:00,59.6,59.6,28.63,NE,52,1.0,7.0,100,0.07,,CLR,0.11,VWS V14.01,2013-04-30 11:16:00,
2013-04-30 06:21:00,59.6,59.6,28.64,ESE,113,1.0,6.0,100,0.05,,CLR,0.11,VWS V14.01,2013-04-30 11:21:00,
2013-04-30 06:26:00,59.6,59.6,28.64,SE,132,5.0,6.0,100,0.05,,CLR,0.11,VWS V14.01,2013-04-30 11:26:00,
2013-04-30 06:31:00,59.6,59.6,28.64,SSE,149,4.0,6.0,100,0.04,,CLR,0.11,VWS V14.01,2013-04-30 11:31:00,
2013-04-30 06:36:00,59.5,59.5,28.63,South,183,3.0,12.0,100,0.04,,CLR,0.11,VWS V14.01,2013-04-30 11:36:00,
2013-04-30 06:41:00,59.5,59.5,28.63,SSE,151,9.0,12.0,100,0.02,,-RA,0.11,VWS V14.01,2013-04-30 11:41:00,
2013-04-30 06:46:00,59.5,59.5,28.62,SSE,154,7.0,16.0,100,0.02,,-RA,0.11,VWS V14.01,2013-04-30 11:46:00,
2013-04-30 06:51:00,59.5,59.5,28.62,SSE,166,9.0,12.0,100,0.02,,-RA,0.11,VWS V14.01,2013-04-30 11:51:00,
2013-04-30 06:56:00,59.5,59.5,28.62,South,170,16.0,21.0,100,0.02,,-RA,0.11,VWS V14.01,2013-04-30 11:56:00,
2013-04-30 07:01:00,59.6,59.6,28.62,SSE,163,10.0,12.0,100,0.00,,-RA,0.11,VWS V14.01,2013-04-30 12:01:00,
2013-04-30 07:06:00,59.5,59.5,28.63,SSE,149,5.0,17.0,100,0.00,,-RA,0.11,VWS V14.01,2013-04-30 12:06:00,
2013-04-30 07:11:00,59.5,59.5,28.64,South,188,9.0,10.0,100,0.00,,-RA,0.11,VWS V14.01,2013-04-30 12:11:00,
2013-04-30 07:16:00,59.6,59.6,28.65,SW,228,4.0,19.0,100,0.00,,-RA,0.11,VWS V14.01,2013-04-30 12:16:00,
2013-04-30 07:21:00,59.8,59.8,28.66,SSE,157,9.0,12.0,100,0.00,,-RA,0.11,VWS V14.01,2013-04-30 12:21:00,
2013-04-30 07:26:00,60.0,60.0,28.66,SE,135,6.0,16.0,100,0.00,,-RA,0.11,VWS V14.01,2013-04-30 12:26:00,
2013-04-30 07:31:00,60.2,60.2,28.65,SSE,166,0.0,15.0,100,0.00,,-RA,0.11,VWS V14.01,2013-04-30 12:31:00,
2013-04-30 07:36:00,60.3,60.3,28.65,SSE,167,7.0,16.0,100,0.00,,-RA,0.00,VWS V14.01,2013-04-30 12:36:00,
2013-04-30 07:41:00,60.4,60.4,28.65,SE,144,9.0,17.0,100,0.00,,-RA,0.11,VWS V14.01,2013-04-30 12:41:00,
2013-04-30 07:46:00,60.6,60.6,28.65,SSE,154,14.0,17.0,100,0.00,,-RA,0.11,VWS V14.01,2013-04-30 12:46:00,
2013-04-30 07:51:00,60.7,60.7,28.64,NNE,32,8.0,11.0,100,0.00,,-RA,0.11,VWS V14.01,2013-04-30 12:51:00,
2013-04-30 07:56:00,60.8,60.8,28.64,SSE,159,5.0,11.0,100,0.00,,BKN110,0.11,VWS V14.01,2013-04-30 12:56:00,
2013-04-30 08:01:00,61.0,61.0,28.63,SW,225,2.0,9.0,100,0.00,,BKN110,0.11,VWS V14.01,2013-04-30 13:01:00,
2013-04-30 08:06:00,61.3,61.3,28.64,South,184,8.0,18.0,100,0.00,,BKN110,0.11,VWS V14.01,2013-04-30 13:06:00,
2013-04-30 08:11:00,61.6,61.6,28.64,South,179,7.0,12.0,100,0.00,,BKN110,0.11,VWS V14.01,2013-04-30 13:11:00,
2013-04-30 08:16:00,61.8,61.8,28.64,South,179,9.0,15.0,100,0.00,,BKN110,0.11,VWS V14.01,2013-04-30 13:16:00,
2013-04-30 08:21:00,62.1,62.1,28.64,SSE,149,7.0,7.0,100,0.00,,BKN110,0.11,VWS V14.01,2013-04-30 13:21:00,
2013-04-30 08:26:00,62.3,62.3,28.65,SSE,164,4.0,17.0,100,0.00,,BKN110,0.11,VWS V14.01,2013-04-30 13:26:00,
2013-04-30 08:31:00,62.3,62.3,28.64,SE,136,2.0,18.0,100,0.00,,BKN110,0.11,VWS V14.01,2013-04-30 13:31:00,
2013-04-30 08:36:00,62.5,62.5,28.64,South,177,8.0,20.0,100,0.00,,BKN110,0.11,VWS V14.01,2013-04-30 13:36:00,
2013-04-30 08:41:00,62.8,62.8,28.65,SSE,147,8.0,9.0,100,0.00,,SCT120,0.11,VWS V14.01,2013-04-30 13:41:00,
2013-04-30 08:46:00,63.2,63.2,28.64,SSE,163,10.0,20.0,100,0.00,,SCT120,0.11,VWS V14.01,2013-04-30 13:46:00,
2013-04-30 08:51:00,63.7,63.7,28.64,SW,219,2.0,6.0,100,0.00,,SCT120,0.11,VWS V14.01,2013-04-30 13:51:00,
2013-04-30 08:56:00,64.2,64.2,28.64,SSE,153,7.0,12.0,100,0.00,,SCT120,0.11,VWS V14.01,2013-04-30 13:56:00,
2013-04-30 09:01:00,65.0,65.0,28.64,SSE,163,3.0,13.0,100,0.00,,SCT120,0.11,VWS V14.01,2013-04-30 14:01:00,
2013-04-30 09:06:00,65.9,65.9,28.63,South,182,11.0,19.0,100,0.00,,SCT120,0.11,VWS V14.01,2013-04-30 14:06:00,
2013-04-30 09:11:00,66.3,52.0,28.63,WSW,248,5.0,14.0,60,0.00,,SCT120,0.11,VWS V14.01,2013-04-30 14:11:00,
2013-04-30 09:16:00,66.3,46.0,28.63,SSE,168,17.0,18.0,48,0.00,,SCT120,0.11,VWS V14.01,2013-04-30 14:16:00,
2013-04-30 09:21:00,66.4,66.4,28.63,SSE,148,10.0,19.0,100,0.00,,SCT120,0.11,VWS V14.01,2013-04-30 14:21:00,
2013-04-30 09:26:00,66.5,66.5,28.63,SSW,194,7.0,19.0,100,0.00,,SCT120,0.11,VWS V14.01,2013-04-30 14:26:00,
2013-04-30 09:31:00,66.8,23.2,28.62,SSE,167,5.0,8.0,19,0.00,,SCT120,0.11,VWS V14.01,2013-04-30 14:31:00,
2013-04-30 09:36:00,67.6,27.4,28.62,SSW,209,14.0,19.0,22,0.00,,SCT120,0.11,VWS V14.01,2013-04-30 14:36:00,
2013-04-30 09:41:00,68.4,68.4,28.63,SSW,197,8.0,15.0,100,0.00,,SCT110,0.11,VWS V14.01,2013-04-30 14:41:00,
2013-04-30 09:46:00,69.0,69.0,28.63,SSW,193,10.0,19.0,100,0.00,,SCT110,0.11,VWS V14.01,2013-04-30 14:46:00,
2013-04-30 09:51:00,69.6,0.0,28.63,SSE,166,15.0,15.0,100,0.00,,SCT110,0.11,VWS V14.01,2013-04-30 14:51:00,
2013-04-30 09:56:00,70.1,70.1,28.62,West,271,2.0,23.0,100,0.00,,SCT110,0.11,VWS V14.01,2013-04-30 14:56:00,
2013-04-30 10:01:00,70.5,70.5,28.63,South,191,9.0,11.0,100,0.00,,SCT110,0.11,VWS V14.01,2013-04-30 15:01:00,
2013-04-30 10:06:00,70.8,70.8,28.63,SSE,162,15.0,15.0,100,0.00,,SCT110,0.11,VWS V14.01,2013-04-30 15:06:00,
2013-04-30 10:11:00,71.2,71.2,28.62,South,182,2.0,17.0,100,0.00,,SCT110,0.11,VWS V14.01,2013-04-30 15:11:00,
2013-04-30 10:16:00,71.5,71.5,28.63,South,182,9.0,21.0,100,0.00,,SCT110,0.11,VWS V14.01,2013-04-30 15:16:00,
2013-04-30 10:21:00,71.8,71.8,28.63,SSW,208,2.0,8.0,100,0.00,,SCT110,0.11,VWS V14.01,2013-04-30 15:21:00,
2013-04-30 10:26:00,72.4,72.4,28.63,SSW,201,5.0,16.0,100,0.00,,SCT110,0.11,VWS V14.01,2013-04-30 15:26:00,
2013-04-30 10:31:00,72.9,72.9,28.63,SSW,195,9.0,20.0,100,0.00,,SCT110,0.11,VWS V14.01,2013-04-30 15:31:00,
2013-04-30 10:36:00,73.3,73.3,28.64,SSW,206,9.0,20.0,100,0.00,,SCT110,0.11,VWS V14.01,2013-04-30 15:36:00,
2013-04-30 10:41:00,73.7,73.7,28.64,SSW,201,10.0,16.0,100,0.00,,FEW100,0.11,VWS V14.01,2013-04-30 15:41:00,
2013-04-30 10:46:00,74.0,74.0,28.64,SSW,202,11.0,16.0,100,0.00,,FEW100,0.11,VWS V14.01,2013-04-30 15:46:00,
2013-04-30 10:51:00,74.2,74.2,28.64,SW,214,8.0,14.0,100,0.00,,FEW100,0.11,VWS V14.01,2013-04-30 15:51:00,
2013-04-30 10:55:00,74.6,74.6,28.64,SW,226,9.0,20.0,100,0.00,,FEW100,0.11,VWS V14.01,2013-04-30 15:55:00,
2013-04-30 11:00:00,75.0,75.0,28.64,SSW,200,7.0,14.0,100,0.00,,FEW100,0.11,VWS V14.01,2013-04-30 16:00:00,
2013-04-30 11:05:00,75.5,75.5,28.64,South,172,4.0,17.0,100,0.00,,FEW100,0.11,VWS V14.01,2013-04-30 16:05:00,
2013-04-30 11:10:00,75.8,75.8,28.64,South,172,18.0,18.0,100,0.00,,FEW100,0.11,VWS V14.01,2013-04-30 16:10:00,
2013-04-30 11:15:00,76.3,76.3,28.64,SSW,195,7.0,18.0,100,0.00,,FEW100,0.11,VWS V14.01,2013-04-30 16:15:00,
2013-04-30 11:20:00,76.6,76.6,28.64,SSW,203,2.0,11.0,100,0.00,,FEW100,0.11,VWS V14.01,2013-04-30 16:20:00,
2013-04-30 11:25:00,77.2,77.2,28.64,SSE,154,6.0,17.0,100,0.01,,FEW100,0.12,VWS V14.01,2013-04-30 16:25:00,
2013-04-30 11:30:00,77.4,77.4,28.65,SW,226,9.0,11.0,100,0.01,,FEW100,0.12,VWS V14.01,2013-04-30 16:30:00,
2013-04-30 11:35:00,77.8,77.8,28.64,SSW,210,15.0,17.0,100,0.01,,FEW100,0.12,VWS V14.01,2013-04-30 16:35:00,
2013-04-30 11:40:00,77.9,77.9,28.64,West,272,5.0,10.0,100,0.01,,FEW110,0.12,VWS V14.01,2013-04-30 16:40:00,
2013-04-30 11:45:00,78.4,78.4,28.64,South,190,8.0,18.0,100,0.01,,FEW110,0.12,VWS V14.01,2013-04-30 16:45:00,
2013-04-30 11:50:00,78.6,78.6,28.65,SSW,201,16.0,24.0,100,0.01,,FEW110,0.12,VWS V14.01,2013-04-30 16:50:00,
2013-04-30 11:55:00,78.7,78.7,28.64,SW,221,12.0,24.0,100,0.01,,FEW110,0.12,VWS V14.01,2013-04-30 16:55:00,
2013-04-30 12:00:00,79.0,79.0,28.65,SW,216,11.0,17.0,100,0.01,,FEW110,0.12,VWS V14.01,2013-04-30 17:00:00,
2013-04-30 12:05:00,79.4,79.4,28.65,SW,214,6.0,25.0,100,0.01,,FEW110,0.12,VWS V14.01,2013-04-30 17:05:00,
2013-04-30 12:10:00,79.8,79.8,28.65,South,189,5.0,11.0,100,0.01,,FEW110,0.12,VWS V14.01,2013-04-30 17:10:00,
2013-04-30 12:15:00,80.2,80.2,28.64,SW,217,10.0,12.0,100,0.01,,FEW110,0.12,VWS V14.01,2013-04-30 17:15:00,
2013-04-30 12:20:00,80.6,80.6,28.64,SSW,192,9.0,13.0,100,0.01,,FEW110,0.12,VWS V14.01,2013-04-30 17:20:00,
2013-04-30 12:25:00,80.9,80.9,28.64,SSW,202,12.0,26.0,100,0.01,,FEW110,0.12,VWS V14.01,2013-04-30 17:25:00,
2013-04-30 12:30:00,81.0,81.0,28.64,SW,236,6.0,18.0,100,0.00,,FEW110,0.12,VWS V14.01,2013-04-30 17:30:00,
2013-04-30 12:35:00,81.4,81.4,28.64,SSW,202,11.0,20.0,100,0.00,,FEW110,0.12,VWS V14.01,2013-04-30 17:35:00,
2013-04-30 12:40:00,81.5,81.5,28.64,SSW,202,12.0,18.0,100,0.00,,FEW100,0.12,VWS V14.01,2013-04-30 17:40:00,
2013-04-30 12:45:00,81.7,81.7,28.64,SSW,194,13.0,18.0,100,0.00,,FEW100,0.12,VWS V14.01,2013-04-30 17:45:00,
2013-04-30 12:50:00,81.8,81.8,28.64,SW,216,12.0,16.0,100,0.00,,FEW100,0.12,VWS V14.01,2013-04-30 17:50:00,
2013-04-30 12:55:00,82.1,82.1,28.64,South,191,7.0,30.0,100,0.00,,FEW100,0.12,VWS V14.01,2013-04-30 17:55:00,
2013-04-30 13:00:00,82.4,82.4,28.63,SSW,212,8.0,15.0,100,0.00,,FEW100,0.12,VWS V14.01,2013-04-30 18:00:00,
2013-04-30 13:05:00,82.6,82.6,28.64,SSW,212,11.0,23.0,100,0.00,,FEW100,0.12,VWS V14.01,2013-04-30 18:05:00,
2013-04-30 13:10:00,82.7,82.7,28.64,SSW,200,9.0,13.0,100,0.00,,FEW100,0.12,VWS V14.01,2013-04-30 18:10:00,
2013-04-30 13:15:00,83.0,83.0,28.64,SSE,151,15.0,21.0,100,0.00,,FEW100,0.12,VWS V14.01,2013-04-30 18:15:00,
2013-04-30 13:20:00,83.2,83.2,28.63,SSE,157,14.0,24.0,100,0.00,,FEW100,0.12,VWS V14.01,2013-04-30 18:20:00,
2013-04-30 13:25:00,83.3,83.3,28.64,SSW,211,12.0,24.0,100,0.00,,FEW100,0.12,VWS V14.01,2013-04-30 18:25:00,
2013-04-30 13:30:00,83.8,83.8,28.64,SSW,194,2.0,10.0,100,0.00,,FEW100,0.12,VWS V14.01,2013-04-30 18:30:00,
2013-04-30 13:35:00,84.0,84.0,28.64,SSE,168,5.0,27.0,100,0.00,,CLR,0.12,VWS V14.01,2013-04-30 18:35:00,
2013-04-30 13:40:00,84.3,84.3,28.64,SSW,205,7.0,18.0,100,0.00,,CLR,0.12,VWS V14.01,2013-04-30 18:40:00,
2013-04-30 13:45:00,84.4,84.4,28.64,SW,215,7.0,23.0,100,0.00,,CLR,0.12,VWS V14.01,2013-04-30 18:45:00,
2013-04-30 13:50:00,84.7,84.7,28.64,SSW,209,9.0,21.0,100,0.00,,CLR,0.12,VWS V14.01,2013-04-30 18:50:00,
2013-04-30 13:55:00,85.2,85.2,28.64,SSW,192,9.0,21.0,100,0.00,,CLR,0.12,VWS V14.01,2013-04-30 18:55:00,
2013-04-30 14:00:00,85.4,85.4,28.64,SSW,204,9.0,15.0,100,0.00,,CLR,0.12,VWS V14.01,2013-04-30 19:00:00,
2013-04-30 14:05:00,85.6,85.6,28.64,SSW,204,9.0,24.0,100,0.00,,CLR,0.12,VWS V14.01,2013-04-30 19:05:00,
2013-04-30 14:10:00,85.6,85.6,28.65,SW,215,8.0,17.0,100,0.00,,CLR,0.12,VWS V14.01,2013-04-30 19:10:00,
2013-04-30 14:15:00,86.0,86.0,28.65,SSW,197,9.0,17.0,100,0.00,,CLR,0.12,VWS V14.01,2013-04-30 19:15:00,
2013-04-30 14:20:00,86.3,86.3,28.65,SSW,205,5.0,13.0,100,0.00,,CLR,0.12,VWS V14.01,2013-04-30 19:20:00,
2013-04-30 14:25:00,86.8,86.8,28.64,South,183,5.0,27.0,100,0.00,,CLR,0.12,VWS V14.01,2013-04-30 19:25:00,
2013-04-30 14:30:00,86.8,86.8,28.65,SSW,210,6.0,11.0,100,0.00,,CLR,0.12,VWS V14.01,2013-04-30 19:30:00,
2013-04-30 14:35:00,86.8,86.8,28.65,SSW,192,9.0,13.0,100,0.00,,CLR,0.12,VWS V14.01,2013-04-30 19:35:00,
2013-04-30 14:40:00,87.3,87.3,28.65,South,179,5.0,14.0,100,0.00,,CLR,0.12,VWS V14.01,2013-04-30 19:40:00,
2013-04-30 14:45:00,87.5,87.5,28.65,SSE,148,5.0,22.0,100,0.00,,CLR,0.12,VWS V14.01,2013-04-30 19:45:00,
2013-04-30 14:50:00,87.8,87.8,28.65,SSW,202,8.0,20.0,100,0.00,,CLR,0.12,VWS V14.01,2013-04-30 19:50:00,
2013-04-30 14:55:00,87.9,87.9,28.65,South,179,7.0,20.0,100,0.00,,CLR,0.12,VWS V14.01,2013-04-30 19:55:00,
2013-04-30 15:00:00,87.9,87.9,28.65,SSW,203,11.0,11.0,100,0.00,,CLR,0.12,VWS V14.01,2013-04-30 20:00:00,
2013-04-30 15:05:00,88.2,88.2,28.65,WSW,243,5.0,17.0,100,0.00,,CLR,0.12,VWS V14.01,2013-04-30 20:05:00,
2013-04-30 15:10:00,88.1,88.1,28.65,SE,146,14.0,14.0,100,0.00,,CLR,0.12,VWS V14.01,2013-04-30 20:10:00,
2013-04-30 15:15:00,88.0,88.0,28.65,SE,125,2.0,25.0,100,0.00,,CLR,0.12,VWS V14.01,2013-04-30 20:15:00,
2013-04-30 15:20:00,88.0,88.0,28.65,SSE,158,6.0,25.0,100,0.00,,CLR,0.12,VWS V14.01,2013-04-30 20:20:00,
2013-04-30 15:25:00,88.2,88.2,28.65,SSW,193,7.0,25.0,100,0.00,,CLR,0.12,VWS V14.01,2013-04-30 20:25:00,
2013-04-30 15:30:00,88.3,88.3,28.65,SW,233,7.0,14.0,100,0.00,,CLR,0.12,VWS V14.01,2013-04-30 20:30:00,
2013-04-30 15:35:00,88.1,88.1,28.65,SSW,193,6.0,25.0,100,0.00,,CLR,0.12,VWS V14.01,2013-04-30 20:35:00,
2013-04-30 15:40:00,88.0,88.0,28.66,South,187,9.0,13.0,100,0.00,,CLR,0.12,VWS V14.01,2013-04-30 20:40:00,
2013-04-30 15:45:00,87.9,87.9,28.66,SSE,166,12.0,18.0,100,0.00,,CLR,0.12,VWS V14.01,2013-04-30 20:45:00,
2013-04-30 15:50:00,88.0,88.0,28.65,SSW,194,13.0,18.0,100,0.00,,CLR,0.12,VWS V14.01,2013-04-30 20:50:00,
2013-04-30 15:55:00,87.9,87.9,28.66,South,184,9.0,26.0,100,0.00,,CLR,0.12,VWS V14.01,2013-04-30 20:55:00,
2013-04-30 16:00:00,87.7,87.7,28.65,SSW,197,9.0,17.0,100,0.00,,CLR,0.12,VWS V14.01,2013-04-30 21:00:00,
2013-04-30 16:05:00,87.5,87.5,28.66,SW,220,9.0,18.0,100,0.00,,CLR,0.12,VWS V14.01,2013-04-30 21:05:00,
2013-04-30 16:10:00,87.5,87.5,28.66,SE,140,4.0,11.0,100,0.00,,CLR,0.12,VWS V14.01,2013-04-30 21:10:00,
2013-04-30 16:15:00,87.5,87.5,28.66,SW,216,6.0,17.0,100,0.00,,CLR,0.12,VWS V14.01,2013-04-30 21:15:00,
2013-04-30 16:20:00,87.3,87.3,28.66,SE,134,11.0,19.0,100,0.00,,CLR,0.12,VWS V14.01,2013-04-30 21:20:00,
2013-04-30 16:25:00,87.0,87.0,28.66,South,173,6.0,19.0,100,0.00,,CLR,0.12,VWS V14.01,2013-04-30 21:25:00,
2013-04-30 16:30:00,86.4,86.4,28.67,SSW,192,10.0,17.0,100,0.00,,CLR,0.12,VWS V14.01,2013-04-30 21:30:00,
2013-04-30 16:35:00,86.3,86.3,28.67,SSE,159,13.0,18.0,100,0.00,,CLR,0.12,VWS V14.01,2013-04-30 21:35:00,
2013-04-30 16:40:00,86.2,86.2,28.66,South,179,3.0,17.0,100,0.00,,CLR,0.12,VWS V14.01,2013-04-30 21:40:00,
2013-04-30 16:45:00,86.7,86.7,28.67,SSE,159,9.0,17.0,100,0.00,,CLR,0.12,VWS V14.01,2013-04-30 21:45:00,
2013-04-30 16:50:00,87.3,87.3,28.67,SE,144,2.0,11.0,100,0.00,,CLR,0.12,VWS V14.01,2013-04-30 21:50:00,
2013-04-30 16:55:00,87.5,87.5,28.67,South,187,13.0,20.0,100,0.00,,CLR,0.12,VWS V14.01,2013-04-30 21:55:00,
2013-04-30 17:00:00,86.7,86.7,28.67,SSE,161,6.0,14.0,100,0.00,,CLR,0.12,VWS V14.01,2013-04-30 22:00:00,
2013-04-30 17:05:00,86.3,86.3,28.67,SSW,209,14.0,21.0,100,0.00,,CLR,0.12,VWS V14.01,2013-04-30 22:05:00,
2013-04-30 17:10:00,85.8,85.8,28.68,SSW,212,9.0,12.0,100,0.00,,CLR,0.12,VWS V14.01,2013-04-30 22:10:00,
2013-04-30 17:15:00,85.8,85.8,28.68,SSW,209,14.0,21.0,100,0.00,,CLR,0.12,VWS V14.01,2013-04-30 22:15:00,
2013-04-30 17:20:00,86.2,86.2,28.68,South,185,11.0,13.0,100,0.00,,CLR,0.12,VWS V14.01,2013-04-30 22:20:00,
2013-04-30 17:25:00,86.4,86.4,28.68,South,185,7.0,23.0,100,0.00,,CLR,0.12,VWS V14.01,2013-04-30 22:25:00,
2013-04-30 17:30:00,87.0,87.0,28.69,South,179,8.0,10.0,100,0.00,,CLR,0.12,VWS V14.01,2013-04-30 22:30:00,
2013-04-30 17:35:00,87.6,87.6,28.69,South,175,8.0,16.0,100,0.00,,CLR,0.12,VWS V14.01,2013-04-30 22:35:00,
2013-04-30 17:40:00,87.3,87.3,28.69,SSW,206,10.0,20.0,100,0.00,,CLR,0.12,VWS V14.01,2013-04-30 22:40:00,
2013-04-30 17:45:00,86.8,86.8,28.69,South,184,7.0,23.0,100,0.00,,CLR,0.12,VWS V14.01,2013-04-30 22:45:00,
2013-04-30 17:50:00,86.7,86.7,28.69,ESE,121,5.0,19.0,100,0.00,,CLR,0.00,VWS V14.01,2013-04-30 22:50:00,
2013-04-30 17:55:00,86.5,86.5,28.69,South,181,8.0,26.0,100,0.00,,CLR,0.12,VWS V14.01,2013-04-30 22:55:00,
2013-04-30 18:00:00,86.4,86.4,28.70,SSW,207,8.0,11.0,100,0.00,,CLR,0.12,VWS V14.01,2013-04-30 23:00:00,
2013-04-30 18:05:00,86.1,86.1,28.70,South,172,4.0,16.0,100,0.00,,CLR,0.12,VWS V14.01,2013-04-30 23:05:00,
2013-04-30 18:10:00,86.7,86.7,28.70,South,183,2.0,5.0,100,0.00,,CLR,0.12,VWS V14.01,2013-04-30 23:10:00,
2013-04-30 18:15:00,86.9,86.9,28.70,SSW,208,6.0,14.0,100,0.00,,CLR,0.00,VWS V14.01,2013-04-30 23:15:00,
2013-04-30 18:20:00,86.8,86.8,28.70,SE,140,10.0,10.0,100,0.00,,CLR,0.12,VWS V14.01,2013-04-30 23:20:00,
2013-04-30 18:25:00,86.7,86.7,28.71,South,190,9.0,19.0,100,0.00,,CLR,0.12,VWS V14.01,2013-04-30 23:25:00,
2013-04-30 18:30:00,86.5,86.5,28.71,South,183,9.0,19.0,100,0.00,,CLR,0.12,VWS V14.01,2013-04-30 23:30:00,
2013-04-30 18:35:00,85.8,85.8,28.71,SSW,194,18.0,19.0,100,0.00,,CLR,0.12,VWS V14.01,2013-04-30 23:35:00,
2013-04-30 18:40:00,85.3,85.3,28.71,ENE,64,1.0,15.0,100,0.00,,CLR,0.12,VWS V14.01,2013-04-30 23:40:00,
2013-04-30 18:45:00,84.7,84.7,28.71,SSE,163,10.0,19.0,100,0.00,,CLR,0.12,VWS V14.01,2013-04-30 23:45:00,
2013-04-30 18:50:00,84.2,84.2,28.72,SE,128,4.0,18.0,100,0.00,,CLR,0.12,VWS V14.01,2013-04-30 23:50:00,
2013-04-30 18:55:00,83.8,83.8,28.72,ESE,118,1.0,23.0,100,0.00,,CLR,0.12,VWS V14.01,2013-04-30 23:55:00,
2013-04-30 19:00:00,83.3,83.3,28.72,SSW,206,4.0,11.0,100,0.00,,CLR,0.12,VWS V14.01,2013-05-01 00:00:00,
2013-04-30 19:05:00,82.9,82.9,28.72,South,175,8.0,16.0,100,0.00,,CLR,0.12,VWS V14.01,2013-05-01 00:05:00,
2013-04-30 19:10:00,82.4,82.4,28.72,ESE,117,4.0,5.0,100,0.00,,CLR,0.12,VWS V14.01,2013-05-01 00:10:00,
2013-04-30 19:15:00,81.9,81.9,28.72,SSW,213,3.0,17.0,100,0.00,,CLR,0.12,VWS V14.01,2013-05-01 00:15:00,
2013-04-30 19:20:00,81.4,81.4,28.73,South,183,7.0,10.0,100,0.00,,CLR,0.12,VWS V14.01,2013-05-01 00:20:00,
2013-04-30 19:25:00,81.0,81.0,28.73,South,174,3.0,18.0,100,0.00,,CLR,0.12,VWS V14.01,2013-05-01 00:25:00,
2013-04-30 19:30:00,80.6,80.6,28.73,WSW,239,4.0,10.0,100,0.00,,CLR,0.12,VWS V14.01,2013-05-01 00:30:00,
2013-04-30 19:35:00,80.1,80.1,28.73,SSE,167,10.0,18.0,100,0.00,,CLR,0.12,VWS V14.01,2013-05-01 00:35:00,
2013-04-30 19:40:00,79.6,79.6,28.73,SSE,153,4.0,11.0,100,0.00,,CLR,0.12,VWS V14.01,2013-05-01 00:40:00,
2013-04-30 19:45:00,79.1,79.1,28.74,SW,217,0.0,19.0,100,0.00,,CLR,0.12,VWS V14.01,2013-05-01 00:45:00,
2013-04-30 19:50:00,78.7,78.7,28.74,South,175,7.0,10.0,100,0.00,,CLR,0.12,VWS V14.01,2013-05-01 00:50:00,
2013-04-30 19:55:00,78.2,78.2,28.74,NNE,30,2.0,20.0,100,0.00,,CLR,0.12,VWS V14.01,2013-05-01 00:55:00,
2013-04-30 20:00:00,77.8,77.8,28.74,SW,221,2.0,13.0,100,0.00,,CLR,0.12,VWS V14.01,2013-05-01 01:00:00,
2013-04-30 20:05:00,77.4,77.4,28.74,SSE,149,12.0,19.0,100,0.00,,CLR,0.12,VWS V14.01,2013-05-01 01:05:00,
2013-04-30 20:10:00,77.1,77.1,28.74,SE,142,6.0,7.0,100,0.00,,CLR,0.12,VWS V14.01,2013-05-01 01:10:00,
2013-04-30 20:15:00,76.9,76.9,28.75,South,185,1.0,17.0,100,0.00,,CLR,0.12,VWS V14.01,2013-05-01 01:15:00,
2013-04-30 20:20:00,76.5,76.5,28.75,South,183,17.0,17.0,100,0.00,,CLR,0.12,VWS V14.01,2013-05-01 01:20:00,
2013-04-30 20:25:00,76.2,76.2,28.75,SSE,154,7.0,17.0,100,0.00,,CLR,0.12,VWS V14.01,2013-05-01 01:25:00,
2013-04-30 20:30:00,76.0,76.0,28.75,South,189,7.0,14.0,100,0.00,,CLR,0.12,VWS V14.01,2013-05-01 01:30:00,
2013-04-30 20:35:00,75.6,75.6,28.75,South,178,6.0,16.0,100,0.00,,CLR,0.12,VWS V14.01,2013-05-01 01:35:00,
2013-04-30 20:40:00,75.3,75.3,28.75,SSW,205,4.0,7.0,100,0.00,,CLR,0.12,VWS V14.01,2013-05-01 01:40:00,
2013-04-30 20:45:00,75.0,75.0,28.75,SSE,158,12.0,15.0,100,0.00,,CLR,0.12,VWS V14.01,2013-05-01 01:45:00,
2013-04-30 20:50:00,74.7,74.7,28.76,South,186,3.0,11.0,100,0.00,,CLR,0.12,VWS V14.01,2013-05-01 01:50:00,
2013-04-30 20:55:00,74.5,74.5,28.76,SW,221,2.0,18.0,100,0.00,,CLR,0.12,VWS V14.01,2013-05-01 01:55:00,
2013-04-30 21:00:00,74.3,74.3,28.76,SSE,160,4.0,13.0,100,0.00,,CLR,0.12,VWS V14.01,2013-05-01 02:00:00,
2013-04-30 21:05:00,74.1,74.1,28.76,South,170,4.0,17.0,100,0.00,,CLR,0.12,VWS V14.01,2013-05-01 02:05:00,
2013-04-30 21:10:00,73.8,73.8,28.77,SSE,154,4.0,8.0,100,0.00,,CLR,0.12,VWS V14.01,2013-05-01 02:10:00,
2013-04-30 21:15:00,73.7,73.7,28.77,South,181,5.0,20.0,100,0.00,,CLR,0.12,VWS V14.01,2013-05-01 02:15:00,
2013-04-30 21:20:00,73.6,73.6,28.77,South,171,9.0,9.0,100,0.00,,CLR,0.12,VWS V14.01,2013-05-01 02:20:00,
2013-04-30 21:25:00,73.4,73.4,28.77,SSE,159,7.0,16.0,100,0.00,,CLR,0.12,VWS V14.01,2013-05-01 02:25:00,
2013-04-30 21:30:00,73.3,73.3,28.77,South,188,6.0,8.0,100,0.00,,CLR,0.12,VWS V14.01,2013-05-01 02:30:00,
2013-04-30 21:35:00,73.2,73.2,28.78,SSW,204,6.0,13.0,100,0.00,,CLR,0.12,VWS V14.01,2013-05-01 02:35:00,
2013-04-30 21:40:00,72.9,72.9,28.78,SSW,198,4.0,11.0,100,0.00,,CLR,0.12,VWS V14.01,2013-05-01 02:40:00,
2013-04-30 21:45:00,72.7,72.7,28.78,South,180,2.0,12.0,100,0.00,,CLR,0.12,VWS V14.01,2013-05-01 02:45:00,
2013-04-30 21:50:00,72.4,72.4,28.78,SSE,156,6.0,8.0,100,0.00,,CLR,0.12,VWS V14.01,2013-05-01 02:50:00,
2013-04-30 21:55:00,72.2,72.2,28.78,SSE,161,8.0,13.0,100,0.00,,CLR,0.12,VWS V14.01,2013-05-01 02:55:00,
2013-04-30 22:00:00,72.0,72.0,28.78,SSE,158,8.0,8.0,100,0.00,,CLR,0.12,VWS V14.01,2013-05-01 03:00:00,
2013-04-30 22:05:00,71.8,71.8,28.78,SSE,161,8.0,15.0,100,0.00,,CLR,0.12,VWS V14.01,2013-05-01 03:05:00,
2013-04-30 22:10:00,71.8,71.8,28.78,East,82,2.0,9.0,100,0.00,,CLR,0.12,VWS V14.01,2013-05-01 03:10:00,
2013-04-30 22:15:00,71.8,71.8,28.78,South,180,16.0,17.0,100,0.00,,CLR,0.12,VWS V14.01,2013-05-01 03:15:00,
2013-04-30 22:20:00,71.7,71.7,28.79,South,179,3.0,8.0,100,0.00,,CLR,0.12,VWS V14.01,2013-05-01 03:20:00,
2013-04-30 22:25:00,71.8,71.8,28.79,South,184,5.0,11.0,100,0.00,,CLR,0.12,VWS V14.01,2013-05-01 03:25:00,
2013-04-30 22:30:00,71.9,71.9,28.79,South,185,10.0,11.0,100,0.00,,CLR,0.12,VWS V14.01,2013-05-01 03:30:00,
2013-04-30 22:35:00,71.8,71.8,28.80,East,91,4.0,16.0,100,0.00,,CLR,0.12,VWS V14.01,2013-05-01 03:35:00,
2013-04-30 22:40:00,71.7,71.7,28.80,South,170,11.0,17.0,100,0.00,,CLR,0.12,VWS V14.01,2013-05-01 03:40:00,
2013-04-30 22:45:00,71.5,71.5,28.80,ESE,120,3.0,17.0,100,0.00,,CLR,0.12,VWS V14.01,2013-05-01 03:45:00,
2013-04-30 22:50:00,71.3,71.3,28.80,South,185,0.0,3.0,100,0.00,,CLR,0.12,VWS V14.01,2013-05-01 03:50:00,
2013-04-30 22:55:00,71.1,71.1,28.81,SSW,194,3.0,10.0,100,0.00,,CLR,0.12,VWS V14.01,2013-05-01 03:55:00,
2013-04-30 23:00:00,70.8,70.8,28.82,South,182,3.0,9.0,100,0.00,,CLR,0.12,VWS V14.01,2013-05-01 04:00:00,
2013-04-30 23:01:00,70.8,70.8,28.81,SSE,154,4.0,11.0,100,0.00,,CLR,0.12,VWS V14.01,2013-05-01 04:01:00,
2013-04-30 23:06:00,70.5,70.5,28.81,South,181,1.0,11.0,100,0.00,,CLR,0.12,VWS V14.01,2013-05-01 04:06:00,
2013-04-30 23:11:00,70.3,70.3,28.82,SSE,163,5.0,9.0,100,0.00,,CLR,0.12,VWS V14.01,2013-05-01 04:11:00,
2013-04-30 23:16:00,70.2,70.2,28.82,South,188,3.0,17.0,100,0.00,,CLR,0.12,VWS V14.01,2013-05-01 04:16:00,
2013-04-30 23:21:00,70.1,70.1,28.82,SSE,164,2.0,13.0,100,0.00,,CLR,0.12,VWS V14.01,2013-05-01 04:21:00,
2013-04-30 23:26:00,69.9,69.9,28.82,South,181,1.0,13.0,100,0.00,,CLR,0.12,VWS V14.01,2013-05-01 04:26:00,
2013-04-30 23:31:00,69.7,69.7,28.83,SE,141,3.0,8.0,100,0.00,,CLR,0.12,VWS V14.01,2013-05-01 04:31:00,
2013-04-30 23:36:00,69.5,69.5,28.83,South,179,1.0,9.0,100,0.00,,CLR,0.12,VWS V14.01,2013-05-01 04:36:00,
2013-04-30 23:41:00,69.2,69.2,28.83,South,173,8.0,10.0,100,0.00,,CLR,0.12,VWS V14.01,2013-05-01 04:41:00,
2013-04-30 23:46:00,69.1,69.1,28.83,SSE,149,4.0,12.0,100,0.00,,CLR,0.12,VWS V14.01,2013-05-01 04:46:00,
2013-04-30 23:51:00,68.9,68.9,28.83,SSE,157,4.0,12.0,100,0.00,,CLR,0.12,VWS V14.01,2013-05-01 04:51:00,
2013-04-30 23:56:00,68.9,68.9,28.84,SSE,160,10.0,14.0,100,0.00,,CLR,0.12,VWS V14.01,2013-05-01 04:56:00,